This is the latest recevied weather packets stored in our database for station/object K5RWS. If no packets are shown the sender has not sent any weather packets the latest 10 day(s).
| Time | Temp. | Humidity | Pressure | Rain* | Wind** | Luminosity | Snow |
|---|---|---|---|---|---|---|---|
| 1777608734 | 15° C | 44% | 1015.3 hPa | 0 mm | - | 0 W/m² | - |
| 1777608430 | 15.56° C | 41% | 1015.4 hPa | 0 mm | - | 0 W/m² | - |
| 1777608129 | 15.56° C | 42% | 1015.3 hPa | 0 mm | - | 0 W/m² | - |
| 1777607825 | 16.11° C | 39% | 1015.3 hPa | 0 mm | - | 0 W/m² | - |
| 1777607521 | 16.67° C | 37% | 1015.4 hPa | 0 mm | - | 0 W/m² | - |
| 1777607217 | 16.67° C | 34% | 1015.4 hPa | 0 mm | - | 0 W/m² | - |
| 1777606914 | 16.67° C | 35% | 1015.3 hPa | 0 mm | - | 0 W/m² | - |
| 1777606610 | 17.22° C | 34% | 1014.7 hPa | 0 mm | - | 0 W/m² | - |
| 1777606304 | 17.22° C | 31% | 1014.6 hPa | 0 mm | - | 0 W/m² | - |
| 1777606000 | 17.22° C | 30% | 1014.6 hPa | 0 mm | - | 0 W/m² | - |
| 1777605697 | 17.78° C | 28% | 1014.3 hPa | 0 mm | - | 0 W/m² | - |
| 1777605395 | 17.78° C | 27% | 1014.2 hPa | 0 mm | - | 0 W/m² | - |
| 1777605092 | 18.33° C | 26% | 1014.1 hPa | 0 mm | - | 0 W/m² | - |
| 1777604788 | 17.78° C | 26% | 1014 hPa | 0 mm | - | 0 W/m² | - |
| 1777604485 | 17.78° C | 27% | 1014 hPa | 0 mm | - | 0 W/m² | - |
| 1777604185 | 17.78° C | 27% | 1013.9 hPa | 0 mm | - | 0 W/m² | - |
| 1777603881 | 17.78° C | 27% | 1013.9 hPa | 0 mm | - | 0 W/m² | - |
| 1777603578 | 17.78° C | 31% | 1013.9 hPa | 0 mm | - | 0 W/m² | - |
| 1777603274 | 18.33° C | 31% | 1013.9 hPa | 0 mm | - | 0 W/m² | - |
| 1777602969 | 18.89° C | 26% | 1013.6 hPa | 0 mm | - | 0 W/m² | - |
| 1777602665 | 18.89° C | 25% | 1013.5 hPa | 0 mm | - | 0 W/m² | - |
| 1777602360 | 18.89° C | 26% | 1013.4 hPa | 0 mm | - | 0 W/m² | - |
| 1777602056 | 18.89° C | 24% | 1013.2 hPa | 0 mm | - | 0 W/m² | - |
| 1777601756 | 19.44° C | 22% | 1013.1 hPa | 0 mm | - | 0 W/m² | - |
| 1777601452 | 19.44° C | 23% | 1012.9 hPa | 0 mm | - | 0 W/m² | - |
* Rain latest hour (hover to see other rain measurements)
** Current wind speed in m/s (hover to see current wind gust speed)